DELTA 1 DEB, 39095

Orbit data source: Space-Track

DELTA 1 DEB, 39095 is space debris in SSO originally from a launch on Tue, 06 Nov 1973 UTC launched from the Air Force Western Test Range (AFWTR). Debris objects in space refer to the collection of defunct objects orbiting the Earth. Examples of debris include non-operational satellites, rocket bodies, and fragments generated from explosions, collisions, or faulty payload assembly.

Loading next visibility...
Identifier
39095, 1973-086HH
Orbit
SSO
Country
Flag of USUS
Related business
Manufacturer
Unknown
Mission
Spacecraft
Bus & Motor
Unknown
Mass
Unknown
Launch date (UTC)
1973-11-06 (52 years ago)
Launch vehicle
Unknown
Launch site
Air Force Western Test Range (AFWTR)
Object type
Payload
Rocket body
Debris
Shape & HBR
Unknown shape, 0.1 m
Radar Cross Section
Small (<0.1 m²)

Expand to show TLE details & history
Last TLE update: 5 days ago

TLE from 5 days ago
0 DELTA 1 DEB
1 39095U 73086HH  25342.74736959  .00000037  00000-0  70112-3 0  9990
2 39095 102.4942 353.9618 0058876 222.7261 136.9210 12.30977804554019
Epoch: 2025-12-08T17:56Z
TLE epoch observation values (Epoch: 2025-12-08T17:56:12.732Z)
Latitude
0.00006°
Longitude
7.16677°
Altitude
1,581.805 km
Speed
7.062 km/s
True Right ascension
23h 35m 50s
True Declination
0° 00' 00"
Sunlit
Object was in daylight at epoch
Visualization orbit readout
Latitude
Unknown
Longitude
Unknown
Altitude
Unknown
Speed
Unknown
Apparent Right ascension
Unknown
Apparent Declination
Unknown
Sunlit
N/A
Visualization observer readout
Local Sidereal Time
09:07:35
Azimuth
Unknown
Elevation
Unknown
Doppler factor
Unknown
Orbital elements
Apogee altitude
1,589.334 km
Perigee altitude
1,496.064 km
Semi-major axis
7,920.836 km
Eccentricity
0.00589
Inclination
102.4942°
RAAN
353.9618°
Arg. of periapsis
222.7261°
True anomaly
137.37933°
Mean anomaly
136.921°
Eccentric anomaly
137.15041°
Mean motion
3.07884 °/min
Orbital period
116.93 mins
BSTAR
0.00070112
Loading maneuver chart data...
Computing Atmospheric mass density...
Loading historical data...
Loading historical data...
Loading historical data...
Loading historical data...
Loading historical data...
Loading historical data...
Loading historical data...

Documentation

Showing up to 5 results
|